{"data":{"norad_id":54227,"epoch":"2026-09-20T22:50:29.060736Z","epoch_age_seconds":121191,"freshness":"FRESH","line1":"1 54227U 22147A   26263.95172524  .00002091  00000+0  14849-3 0  9990","line2":"2 54227  97.6884 265.1919 0011184 230.3066 129.7176 15.05796377212178","mean_motion":15.05796377,"eccentricity":0.0011184,"inclination_deg":97.6884,"raan_deg":265.1919,"arg_perigee_deg":230.3066,"mean_anomaly_deg":129.7176,"bstar":0.00014849,"rev_number":21217,"period_min":95.630459867948,"perigee_km":541.31481389818,"apogee_km":556.80957305414,"semimajor_km":6927.1991934762,"source":"CELESTRAK","updated_at":"2026-09-21T09:00:09.451124Z"}}